Regional Weather Roundup
Issued by NWS State College, PA

Home | Current Version | Previous Version | Graphics & Text | Print | Product List | Glossary On
Versions: 1 2 3 4 5 6 7 8 9 10 11 12 13 14 15 16 17 18 19 20 21 22 23 24 25 26 27 28 29 30 31 32 33 34 35 36 37 38 39 40 41 42 43 44 45 46 47 48 49 50
000
ASUS41 KCTP 041310
RWRCTP

REGIONAL WEATHER ROUNDUP
NATIONAL WEATHER SERVICE STATE COLLEGE PA
800 AM EST WED MAR 04 2015

Note: "fair" indicates few or no clouds below 12,000 feet with no
significant weather and/or obstructions to visibility.

* = STATION THAT DOES NOT REPORT PRECIPITATION /E.G. RAIN...SNOW...ETC/
    THUNDER OR FOG.

PAZ002>004-007>009-013>016-020>023-029>032-041400-
WESTERN PENNSYLVANIA

CITY           SKY/WX    TMP DP  RH WIND       PRES   REMARKS
ERIE           CLOUDY    31  24  75 W6        29.90R
MEADVILLE        N/A     32  27  81 W5        29.85R
FRANKLIN*      CLOUDY    32  27  80 W7        29.87R
NEW CASTLE     FOG       34  34 100 CALM      29.90R VSB 1/2
BEAVER COUNTY  CLOUDY    32  32 100 SW6       29.88R FOG
BUTLER*        CLOUDY    34  30  86 W6        29.90R
PITTSBURGH INT LGT SNOW  33  32  96 S5        29.88S
PITTSBURGH     LGT SNOW  33  29  85 SW6       29.88R VSB 1
INDIANA*       FOG       32  32 100 SW6       29.91R VSB 1
LATROBE        LGT SNOW  34  34 100 W9        29.91R
WASHINGTON CO* CLOUDY    36  34  93 CALM      29.91R
$$

PAZ004>006-010>012-017>019-024>028-033>037-041-042-045-046-049>053-041400-
CENTRAL PENNSYLVANIA

CITY           SKY/WX    TMP DP  RH WIND       PRES   REMARKS
BRADFORD       CLOUDY    31  27  85 W8        29.80R
DUBOIS         CLOUDY    32  32 100 SW9       29.82S FOG
CLEARFIELD     LGT SNOW  33  32  96 S3        29.84R FOG
JOHNSTOWN      LGT RAIN  33  32  96 SW10      29.83R FOG
ALTOONA        LGT RAIN  39  34  82 W10       29.86R
STATE COLLEGE  CLOUDY    36  34  93 S7        29.81F
WILLIAMSPORT   CLOUDY    31  28  89 SE3       29.83S FOG
SELINSGROVE    CLOUDY    34  32  92 S5        29.85R FOG
FT INDIANTOWN  FRZ RAIN  32  32 100 CALM      29.87R FOG
CAPITAL CITY   LGT RAIN  35  33  92 W7        29.88R FOG
HARRISBURG     LGT RAIN  34  32  92 CALM      29.87R FOG
YORK           CLOUDY    34  34 100 CALM      29.87R FOG
$$

PAZ038>040-043-044-047-048-054-055-060>062-067>071-041400-
EASTERN PENNSYLVANIA

CITY           SKY/WX    TMP DP  RH WIND       PRES   REMARKS
SCRANTON       CLOUDY    34  30  85 SW8       29.80R FOG
MOUNT POCONO   CLOUDY    36  33  89 W20G25    29.75R
ALLENTOWN      LGT RAIN  35  31  85 SW9       29.84R FOG
QUAKERTOWN*    CLOUDY    32  32 100 CALM      29.86R
READING        LGT RAIN  34  32  92 CALM      29.86R FOG
LANCASTER      LGT RAIN  34  33  96 W3        29.87R FOG
COATESVILLE    FOG       36  36 100 W5        29.87R VSB 1
POTTSTOWN      LGT RAIN  34  34 100 CALM      29.87R FOG
BLUE BELL      CLOUDY    36  36 100 CALM      29.86R
DOYLESTOWN     MIX PCPN  33  33 100 SW6       29.85R FOG
WILLOW GROVE   NOT AVBL
NORTH PHILA    LGT RAIN  38  33  82 SW5       29.90R
PHILADELPHIA   LGT RAIN  36  34  92 SW9       29.90R FOG
$$


USA.gov is the U.S. government's official web portal to all federal, state and local government web resources and services.